Flag Weather past 2 weeks in Albuquerque, New Mexico, U.S.A.

Now
69 °F

Scattered clouds.


Feels Like: 69 °F
Forecast: 44 / 66 °F
Wind: 8 mph from Southeast

Location: Albuquerque International Airport

Current Time: Oct 31, 2014 at 4:14:03 PM

Latest Report: Oct 31, 2014 at 3:52 PM


Visibility: 10 mi

Pressure: 30.06 "Hg

Humidity: 24%

Dew point: 31 °F

Location of AlbuquerqueLocation

Historic Weather in Albuquerque — Graph

°F

Albuquerque temperature yesterday

Maximum temperature yesterday: 72 °F (at 3:52 PM)
Minimum temperature yesterday: 46 °F (at 6:52 AM)
Average temperature yesterday: 59 °F

Past Weeks' High & Low Weather Summary

 TemperatureHumidityPressure
High79 °F (Oct 16, 3:52 PM)83% (Oct 21, 4:52 AM)30.24 "Hg (Oct 21, 4:52 AM)
Low46 °F (Oct 30, 6:52 AM)12% (Oct 30, 1:52 PM)29.72 "Hg (Oct 27, 3:52 PM)
Average61 °F42%30.01 "Hg
* Reported Oct 16 2:52 PM — Oct 31 2:52 PM, Albuquerque, Weather by CustomWeather, © 2014

Note: Actual official high and low records may vary slightly from our data, if they occured in-between our weather recording intervals... More about our weather records

Advertising

Albuquerque weather history for previous 24 hours

 ConditionsComfort  
Time TempWeatherWind HumidityBarometerVisibility
2:52 PM
Oct 31
66 °FScattered clouds.8 mph26%30.09 "Hg10 mi
1:52 PM65 °FScattered clouds.7 mph26%30.12 "Hg10 mi
12:52 PM62 °FPartly sunny.8 mph27%30.17 "Hg10 mi
11:52 AM62 °FPartly sunny.7 mph27%30.20 "Hg10 mi
10:52 AM61 °FPassing clouds.15 mph30%30.21 "Hg10 mi
9:52 AM57 °FPassing clouds.20 mph33%30.23 "Hg10 mi
8:52 AM54 °FScattered clouds.18 mph35%30.23 "Hg10 mi
7:52 AM52 °FPassing clouds.14 mph38%30.22 "Hg10 mi
6:52 AM52 °FPassing clouds.14 mph37%30.20 "Hg10 mi
5:52 AM53 °FClear.20 mph35%30.18 "Hg10 mi
4:52 AM54 °FClear.20 mph33%30.17 "Hg10 mi
3:52 AM54 °FPassing clouds.18 mph31%30.16 "Hg10 mi
2:52 AM55 °FClear.14 mph30%30.17 "Hg10 mi
1:52 AM56 °FClear.17 mph29%30.16 "Hg10 mi
12:52 AM58 °FClear.22 mph26%30.16 "Hg10 mi
11:52 PM
Oct 30
59 °FClear.17 mph25%30.16 "Hg10 mi
10:52 PM60 °FClear.18 mph24%30.17 "Hg10 mi
9:52 PM60 °FClear.12 mph24%30.17 "Hg10 mi
8:52 PM63 °FClear.13 mph22%30.16 "Hg10 mi
7:52 PM64 °FClear.12 mph20%30.16 "Hg10 mi
6:52 PM65 °FPassing clouds.6 mph19%30.14 "Hg10 mi
5:52 PM70 °FPassing clouds.3 mph14%30.11 "Hg10 mi
4:52 PM72 °FSunny.5 mph12%30.10 "Hg10 mi
Weather by CustomWeather, © 2014

See weather overviewHow to use our weather pages